Flag for U.S.A. Weather past 2 weeks in Shreveport, Louisiana, U.S.A.

Now
47 °F

Fog.


Feels Like: 47 °F
Forecast: 43 / 54 °F
Wind: No wind

Location: Shreveport Regional Airport

Current Time: Dec 20, 2014 at 3:35:58 PM

Latest Report: Dec 20, 2014 at 2:56 PM


Visibility: 6 mi

Pressure: 30.19 "Hg

Humidity: 86%

Dew point: 43 °F

Location of ShreveportLocation

Historic Weather in Shreveport — Graph

°F

Shreveport temperature yesterday

Maximum temperature yesterday: 51 °F (at 12:56 AM)
Minimum temperature yesterday: 47 °F (at 8:02 AM)
Average temperature yesterday: 48 °F

Past Weeks' High & Low Weather Summary

 TemperatureHumidityPressure
High74 °F (Dec 5, 3:56 PM)100% (Dec 9, 6:56 AM)30.43 "Hg (Dec 9, 6:56 AM)
Low36 °F (Dec 17, 12:56 AM)25% (Dec 15, 2:56 PM)29.85 "Hg (Dec 15, 5:56 AM)
Average52 °F79%30.21 "Hg
* Reported Dec 5 2:03 PM — Dec 20 1:56 PM, Shreveport, Weather by CustomWeather, © 2014

Note: Actual official high and low records may vary slightly from our data, if they occured in-between our weather recording intervals... More about our weather records

Advertising

Shreveport weather history for previous 24 hours

 ConditionsComfort  
Time TempWeatherWind HumidityBarometerVisibility
1:56 PM
Dec 20
47 °FFog.7 mph86%30.19 "Hg4 mi
12:56 PM46 °FFog.No wind89%30.22 "Hg3 mi
11:56 AM46 °FFog.6 mph89%30.22 "Hg2 mi
10:56 AM45 °FFog.6 mph93%30.26 "Hg2 mi
9:56 AM45 °FFog.6 mph93%30.26 "Hg3 mi
8:56 AM45 °FFog.7 mph93%30.25 "Hg3 mi
7:56 AM45 °FLow clouds.6 mph93%30.24 "Hg7 mi
6:56 AM45 °FLow clouds.9 mph93%30.22 "Hg7 mi
5:56 AM45 °FLow clouds.9 mph93%30.20 "Hg7 mi
4:56 AM45 °FLow clouds.8 mph93%30.19 "Hg8 mi
3:56 AM45 °FLow clouds.7 mph93%30.19 "Hg8 mi
2:56 AM46 °FLow clouds.6 mph89%30.18 "Hg9 mi
1:56 AM46 °FMostly cloudy.7 mph89%30.18 "Hg9 mi
12:56 AM47 °FLow clouds.8 mph90%30.19 "Hg9 mi
11:56 PM
Dec 19
47 °FLow clouds.8 mph90%30.19 "Hg9 mi
10:56 PM47 °FFog.9 mph93%30.19 "Hg6 mi
9:56 PM47 °FLow clouds.10 mph93%30.19 "Hg9 mi
8:56 PM47 °FDrizzle. Fog.14 mph93%30.18 "Hg6 mi
7:56 PM47 °FDrizzle. Fog.13 mph93%30.17 "Hg5 mi
6:56 PM47 °FLight rain. Fog.9 mph97%30.16 "Hg2 mi
5:56 PM48 °FMostly cloudy.9 mph89%30.15 "Hg10 mi
4:56 PM48 °FOvercast.12 mph89%30.13 "Hg10 mi
3:56 PM48 °FLow clouds.10 mph89%30.11 "Hg9 mi
Weather by CustomWeather, © 2014

See weather overviewHow to use our weather pages